Back to catalog

COSMOS 1024 DEB

LostHEO
NORAD 27890·DEBRIS·🇷🇺 Russia

Launched Jun 28, 1978 from Plesetsk Cosmodrome

Loading…

Next Passes (next 24 hours)

TLE

StaleSource: Space-Track

Epoch: Jul 1, 2011, 15:26 UTC

1 27890U 78066G   11182.64360497  .00000136  00000-0  00000+0 0  9994
2 27890  66.9856 106.5085 5485158  95.9157  28.4750  2.02939386 71225

Track COSMOS 1024 DEB in real time with AllMySat

Download on the App Store